www.pogodaiklimat.ru

Погода и климат >> Архив погоды >> Россия >> Якутия >> Себян-Кюель


ПОГОДА в Себян-Кюеле

  • Прогноз погоды в Себян-Кюеле
  • Монитор погоды в Себян-Кюеле
  • Климат города

АРХИВ ПОГОДЫ в Себян-Кюеле

Время (UTC), дата Ветер
(напр.,м/с)
 
Видим.   Явления Облачность Т
(С)
Тd
(С)
f
(%)
Тe
(С)
Тes
(С)
Комфортность P
(гПа)
Po
(гПа)
Тmin
(С)
Tmax
(С)
R
(мм)
R24
(мм)
S
(см)
09 17.05 СВ 3 10 км слабый дождь со снегом 10/3 600 м
[Sc As op]
+2.8 -5.3 55 -1 -0 993.3 902.9
12 17.05 штиль 0 4000 м слабый снег 10/10 1200 м
[Sc]
-0.2 -1.7 90 -1 -1 994.3 903.0 +3.6 0.0
15 17.05 штиль 0 4000 м слабый снег 10/10 600 м
[Sc]
-1.2 -1.7 96 -3 -3 993.8 902.2
18 17.05 штиль 0 4000 м слабый снег 10/10 120 м
[St]
-1.0 -1.2 99 -2 -2 992.4 901.0
21 17.05 штиль 0 10 км слабый снег 10/10 400 м
[Sc]
-0.3 -0.6 98 -2 -2 991.1 900.0
00 18.05 В 3 10 км слабый снег 10/10 600 м
[Sc]
+1.0 -0.7 88 -4 -4 990.5 899.9 -1.3 4 0
03 18.05 В 3 10 км слабый снег 10/10 600 м
[Sc]
+1.0 -0.7 88 -4 -4 990.5 899.9 -1.3 4 0
06 18.05 В 2 10 км слабый снег 10/10 600 м
[Sc]
+1.6 -1.5 80 -2 -2 990.9 900.4
09 18.05 З 6 10 км слабый снег 10/10 600 м
[Sc]
+1.4 -0.8 85 -5 -5 995.3 904.3
12 18.05 З 5 10 км слабый снег 10/10 600 м
[Sc]
-4.8 -6.6 87 -12 -12 1000.2 906.8 +2.4 1
15 18.05 ЮЗ 1 10 км слабый снег 10/10 600 м
[Sc]
-5.4 -6.1 95 -8 -8 1001.5 907.8
18 18.05 штиль 0 10 км слабый снег 10/10 600 м
[Sc]
-6.0 -6.4 97 -7 -7 1002.4 908.4
21 18.05 ЮЗ 1 10 км слабый снег 10/10 600 м
[Sc]
-5.8 -6.2 97 -8 -8 1002.3 908.4
00 19.05 З 3 10 км слабый снег 10/8 600 м
[Sc Ac trans]
-6.5 -11.6 67 -12 -11 1003.2 908.9 -9.2 9 12
03 19.05 СВ 2 50 км {снег} 10/8 600 м
[Sc Ac trans]
-4.3 -8.9 70 -8 -7 1003.2 909.7
06 19.05 СЗ 4 50 км {снег} 10/8 600 м
[Sc As op]
-3.4 -8.1 70 -9 -9 1004.4 911.0
09 19.05 З 4 50 км 10/4 600 м
[Sc As op]
-4.6 -12.7 53 -10 -10 1006.6 912.6
12 19.05 З 3 10 км слабый снег 10/10 930 м
[Sc]
-5.3 -10.8 65 -11 -11 1008.2 913.8 -2.7 0.0
15 19.05 З 4 10 км слабый снег 10/10 800 м
[Sc]
-8.0 -12.1 72 -15 -15 1009.4 914.0
18 19.05 ЮЗ 2 4000 м слабый снег 10/10 600 м
[St As op Ci fib]
-7.7 -9.9 84 -12 -12 1009.1 913.8
21 19.05 штиль 0 4000 м слабый снег 10/10 630 м
[Sc]
-7.2 -8.1 93 -8 -8 1008.7 913.7
00 20.05 В 3 10 км слабый снег 10/10 600 м
[Sc]
-5.6 -7.8 84 -11 -11 1008.2 913.8 -8.6 2 12
03 20.05 штиль 0 50 км {снег} 10/10 600 м
[Sc]
-4.2 -8.8 70 -5 -5 1007.6 913.7
06 20.05 ЮЗ 1 10 км слабый снег 10/10 600 м
[Sc]
-4.2 -8.8 70 -6 -6 1008.2 914.2
09 20.05 штиль 0 10 км слабый снег 10/10 600 м
[Sc]
-5.0 -8.6 76 -6 -6 1009.7 915.3
12 20.05 СЗ 1 50 км {снег} 10/10 600 м
[Sc]
-6.4 -10.0 76 -9 -9 1011.5 916.5 -4.0
15 20.05 ЮЗ 2 50 км 8/8 600 м
[Sc]
-7.8 -10.9 78 -12 -12 1012.6 917.0
18 20.05 СЗ 1 50 км {снег} 10/10 600 м
[Sc]
-6.4 -10.0 76 -9 -9 1011.5 916.5 -4.0 0.7
21 20.05 штиль 0 50 км 10/0 2000 м
[Ac trans]
-9.4 -12.9 76 -10 -9 1013.4 917.2
00 21.05 С 2 10 км слабый снег 10/10 1080 м
[Sc]
-7.9 -13.5 64 -12 -12 1013.1 917.4 -11.2 0.0 6
03 21.05 С 2 50 км {снег} 10/6 1000 м
[Sc As op]
-6.4 -14.0 55 -10 -9 1012.9 917.7
06 21.05 штиль 0 50 км {снег} 10/4 1000 м
[Sc Ac trans Ci fib]
-5.1 -14.1 49 -5 -2 1012.4 917.7
09 21.05 СВ 2 50 км 4/4 1000 м
[Sc]
-4.8 -15.5 43 -8 -7 1012.7 918.0
12 21.05 штиль 0 50 км 3/3 1000 м
[Sc]
-6.8 -11.5 69 -7 -7 1014.2 918.7 -4.0 0.0
15 21.05 штиль 0 50 км 3/3 1000 м
[Sc]
-14.2 -18.5 70 -14 -14 1017.5 919.1
18 21.05 штиль 0 50 км 10/10 1080 м
[Sc]
-14.5 -17.2 80 -15 -15 1017.7 919.2
21 21.05 штиль 0 50 км 10/10 1080 м
[Sc]
-12.1 -14.8 80 -12 -12 1016.4 918.9
00 22.05 С 2 50 км 10/10 1200 м
[Sc]
-6.2 -11.6 66 -10 -10 1013.7 918.6 -16.1 6
03 22.05 ЮВ 2 50 км 4/0 2000 м
[Ac trans]
-3.4 -10.8 57 -7 +2 1012.1 918.0
06 22.05 В 2 50 км ясно -1.6 -9.8 54 -5 +4 1011.4 918.0
09 22.05 ЮЗ 3 50 км ясно -2.0 -10.0 54 -6 -4 1011.8 918.2
12 22.05 ЮЗ 4 50 км ясно -5.2 -11.1 63 -11 -11 1014.2 919.3 -1.2
15 22.05 ЮЗ 1 50 км 10/0
[]
-10.6 -14.2 75 -13 -13 1016.3 919.4
18 22.05 штиль 0 50 км 4/0 2000 м
[Ac trans]
-10.8 -13.6 80 -11 -11 1016.5 919.5
21 22.05 З 1 50 км 10/0 2000 м
[Ac und]
-8.6 -11.4 80 -11 -10 1015.3 919.2
00 23.05 штиль 0 4000 м слабый снег 10/10 400 м
[Sc]
-3.8 -7.9 73 -5 -5 1013.5 919.1 -12.6 0.0 5
03 23.05 штиль 0 4000 м слабый снег 10/6 600 м
[Sc As trans]
-1.6 -3.3 88 -3 -0 1011.9 918.5
06 23.05 штиль 0 4000 м слабый снег 10/10 450 м
[Sc]
-0.8 -1.8 93 -2 -2 1011.4 918.3
09 23.05 штиль 0 50 км {снег} 8/4 600 м
[Sc Ac trans Ci fib]
+1.3 -2.2 77 0 +2 1010.5 918.1
12 23.05 штиль 0 50 км {снег} 10/3 600 м
[Sc Ac trans]
+0.9 -2.3 79 -0 0 1010.4 917.9 +3.0 2
15 23.05 ЮЗ 2 50 км 10/0 2000 м
[As trans]
-1.1 -3.6 83 -5 -5 1010.2 917.1
18 23.05 штиль 0 4000 м слабый снег 10/10 630 м
[Sc]
-1.0 -2.0 93 -2 -2 1009.5 916.5
21 23.05 штиль 0 4000 м слабый снег 10/10 450 м
[Sc]
-1.8 -2.3 96 -3 -3 1008.5 915.3
00 24.05 СВ 1 50 км {снег} 10/0 2000 м
[As trans]
+3.4 -0.7 74 +2 +6 1003.3 912.2 -2.3 0.0 5
03 24.05 ЮВ 2 50 км 10/0 2000 м
[As trans]
+7.4 -3.8 45 +6 +11 999.1 909.7

 

Местоположение метеостанции Себян-Кюель (Якутия, Россия): широта 65.30 долгота 130.00 высота над уровнем моря 777 м.

В архиве по умолчанию представлена погода в Себян-Кюеле за последнюю неделю. Архивные данные за месяц целиком и за предыдущие месяцы, начиная с января 2011 года, Вы можете получить, выбрав интересующий диапазон дат из раскрывающегося списка и нажав кнопку "Ввод!".

Внимание! Время в таблицах - всемирное. Для получения местного времени необходимо прибавить поправку, которая в Себян-Кюеле равна 9 ч.

Смотрите также архив погоды в соседних городах и на ближайших метеорологических станциях:

Погода в Сеген-Кюели (Якутия, Россия) (145 км)
Погода в Екюччю (Якутия, Россия) (179 км)
Погода в Сангаре (Якутия, Россия) (195 км)
Погода в Батамае (Якутия, Россия) (200 км)
Погода в Сого-Хае (Якутия, Россия) (205 км)
Погода в Верхоянском Перевозе (Якутия, Россия) (240 км)
Погода в Иэме (Якутия, Россия) (269 км)
Погода в Бестяхской Звероферме (Якутия, Россия) (274 км)
Погода в Батагай-Алыте (Якутия, Россия) (276 км)
Погода в Намцах (Якутия, Россия) (288 км)

Пояснения к столбцам:

Ветер - указаны скорость ветра в м/с - средняя за 10 мин, порывы в срок и между сроками (в фигурных скобках) и направление, откуда дует ветер: С - северный, СВ - северо-восточный, В - восточный, ЮВ - юго-восточный, Ю - южный, ЮЗ - юго-западный, З - западный, СЗ - северо-западный.
Видимость - горизонтальная дальность видимости в метрах или километрах. При видимости от 1 до 10 км при отсутствии осадков обычно наблюдается дымка, при ухудшении видимости до 1 км и менее - туман. В сухую погоду видимость может ухудшаться дымом, пылью или мглою.
Явления - указаны атмосферные явления, наблюдавшиеся в срок или в последний час перед сроком; фигурными скобками обозначены явления, наблюдавшиеся между сроками (за 1-3 часа до срока); квадратными скобками обозначены град или гололедные отложения с указанием их диаметра в мм.
Облачность - указаны через наклонную черту общая и нижняя облачность в баллах и высота нижней границы облаков в метрах; квадратными скобками обозначены формы облаков: Ci - перистые, Cs - перисто-слоистые, Cc - перисто-кучевые, Ac - высококучевые, As - высокослоистые, Sc - слоисто-кучевые, Ns - слоисто-дождевые, Cu - кучевые, Cb - кучево-дождевые. Подробнее классификацию облаков см. в Атласе облаков (PDF).
T - Температура воздуха - температура, измеренная на высоте 2 м над землей.
Td - Температура точки росы - температура, при понижении до которой содержащийся в воздухе водяной пар достигнет насыщения.
f - Относительная влажность воздуха - влажноcть воздуха, измеренная на высоте 2 м над землей.
Te - Эффективная температура - температура, которую ощущает одетый по сезону человек в тени. Характеристика душности погоды. При расчете учитывается влияние влажности воздуха и скорости ветра на теплоощущения человека.
Tes - Эффективная температура на солнце - температура, которую ощущает человек, с поправкой на солнечный нагрев. Характеристика знойности погоды. Зависит от высоты солнца над горизонтом, облачности и скорости ветра. Ночью, в пасмурную погоду, а также при ветре 12 м/с и более поправка равна нулю.
P - Атмосферное давление - приведенное к уровню моря атмосферное давление.
Po - Атмосферное давление - измеренное на уровне метеостанции атмосферное давление.
Tmin - Минимальная температура - минимум температуры воздуха на высоте 2 м над землей.
Tmax - Максимальная температура - максимум температуры воздуха на высоте 2 м над землей.
R - Количество осадков - Количество выпавших осадков за период времени, мм. При наведении курсора мыши на число - период времени, за который выпало указанное количество осадков.
R24 - Количество осадков - Количество выпавших осадков за 24 часа, мм.
S - Снежный покров - Высота снежного покрова, см. При наведении курсора мыши на число - состояние снежного покрова и степень покрытия местности в баллах.